Skip Page Navigation
NASA JPL Caltech
NASA Logo - Jet Propulsion Laboratory + View the NASA Portal
+ Near-Earth Object (NEO) Program
Search JPL
JPL Home Earth Solar System Stars & Galaxies Technology
JPL Solar System Dynamics
BODIES ORBITS EPHEMERIDES TOOLS PHYSICAL DATA DISCOVERY FAQ SITE MAP
JPL Small-Body Database Browser
Search: [ help ]  
31267 Kuldiga (1998 ES14)
Classification: Main-belt Asteroid          SPK-ID: 2031267
Ephemeris | Orbit Diagram | Orbital Elements | Physical Parameters | Discovery Circumstances | Close-Approach Data ]

[ show orbit diagram ]
Orbital Elements at Epoch 2457000.5 (2014-Dec-09.0) TDB
Reference: JPL 16 (heliocentric ecliptic J2000)
 Element Value Uncertainty (1-sigma)   Units 
e .1134237084988902 8.0097e-08  
a 3.017732094060567 3.5749e-08 AU
q 2.675449728696096 2.3978e-07 AU
i 10.58721939065013 7.5291e-06 deg
node 12.73214228757477 3.1461e-05 deg
peri 1.611580260312668 4.1183e-05 deg
M 225.8868036201475 2.9118e-05 deg
tp 2457713.826670303217
(2016-Nov-21.32667030)
0.00016054 JED
period 1914.782498970671
5.24
3.4024e-05
9.315e-08
d
yr
n .1880109099563659 3.3408e-09 deg/d
Q 3.360014459425039 3.9803e-08 AU
  Orbit Determination Parameters
   # obs. used (total)      969  
   data-arc span      7994 days (21.89 yr)  
   first obs. used      1993-03-21  
   last obs. used      2015-02-08  
   planetary ephem.      DE431  
   SB-pert. ephem.      SB431-BIG16  
   condition code      0  
   fit RMS      .53641  
   data source      ORB  
   producer      Otto Matic  
   solution date      2015-Mar-09 15:37:56  

Additional Information
 Earth MOID = 1.67616 AU 
 T_jup = 3.212 
[ show covariance matrix ]

Ephemeris | Orbit Diagram | Orbital Elements | Physical Parameters | Discovery Circumstances | Close-Approach Data ]

Physical Parameter Table
Parameter Symbol Value Units Sigma Reference Notes
absolute magnitude H 12.8 mag n/a MPO263609  

31267 Kuldiga           Discovered 1998 Mar. 1 by E. W. Elst at the European Southern Observatory.
Kuldiga, a city in western Latvia, was first mentioned in 1242, and it joined the Hanseatic League in 1368. The city is known for its beautiful nineteenth-century synagogue and for the Ventas Rumba, the widest waterfall in Europe.
NOTE: some special characters may not display properly (any characters within {} are an attempt to place the proper accent above a character)
Reference: 20080321/MPCPages.arcLast Updated: 2008-03-26

[ show close-approach data ]
Alternate Designations
 1998 ES14 = 1993 FW20 
Ephemeris | Orbit Diagram | Orbital Elements | Physical Parameters | Discovery Circumstances | Close-Approach Data ]
ABOUT SSD CREDITS/AWARDS PRIVACY/COPYRIGHT GLOSSARY LINKS
FirstGov 2015-Jul-03 02:37 UT
(server date/time)  
NASA Home Page
Site Manager:   Ryan S. Park
Webmaster  Alan B. Chamberlin